Погода в Мариуполе

Погода в Мариуполе : погода сейчас, прогноз погоды и архив. Всё, что Вы хотите узнать о погоде в Мариуполе!

Поиск расширенной информации на нашем сайте:

Другие новости

Новости СМИ2

Главная страница сайта

Новости сайта

02.10.2013

Напоминаем, что на нашем новом сайте вы можете получить высокодетализированные прогнозы погоды по пунктам России, СНГ и мира (включающие важные для авиации метеовеличины, такие как направление и скорость ветра, видимость, явления погоды, количество и форма облачности, нижняя и верхняя граница облачности), а также ознакомиться с разнообразными материалами по авиационной метеорологии и подборкой полезных ссылок на эту тему.

Сайт Метеоцентр.Азия посвящён разработке технологий оптимизации авиаметеорологического обслуживания, включая проектирование и перспективное создание нескольких автоматизированных авиаметеорологических систем:
- система выпуска высокодетальных прогностических карт явлений погоды для нижнего воздушного пространства по России и ближнему зарубежью;
- система верификации прогнозов TAF (выпускаемых синоптиками официальных АМСГ РФ и ближнего зарубежья) и AUTOTAF (выпускаемых сайтом Метеоцентр.Азия) - выявление ошибок, онлайн-сопоставление с фактической погодой METAR, автоматическое внесение коррективов в прогнозы при резком отклонении фактической погоды от прогноза, подсчёт оправдываемости прогнозов по элементам и в целом;
- система обработки, анализа и отображения авиаметеорологической информации для применения провайдерами метеорологической информации.


Погода в Мариуполе - сегодня

Время (UTC), дата Ветер
(°,м/с) 
Видим.   Явления Облачность Т
(°С)
Тd
(°С)
f(%) Тe
(°С)
Pmin
(гПа)
dP
(гПа)
Po
(мм)
O2
(г/м3)
Тmin Tmax R s Состояние
почвы
18 03.07.15 340 (С) 20000 м  {гроза, ливн. осадки}  6/3 1000 м кучево-дожд., средняя 
[Cb cap|Ac trans]
+23.5 +17 67 +35  1019.8  1.2  759  278    +26.5  0.6     
21 03.07.15 340 (С) 10 км    9/0 средняя 
[Ac trans]
+21.3 +16.3 73 +32  1020.5  0.7  759  280           
00 04.07.15 050 (СВ) 20000 м    3/0 средняя 
[Ac trans]
+18.6 +9.9 57 +20  1021.1  0.5  760  285           
03 04.07.15 050 (СВ) 10 км    ясно 
+20 +11.7 59 +23  1021.7  0.6  760  283           
06 04.07.15 080 (В) 10 км    ясно 
+23.6 +12.6 50 +28  1022.2  0.6  761  280  +18.5         
09 04.07.15 100 (В) 20000 м    ясно 
+25.4 +13.8 49 +32  1021.8  -0.3  760  278           
12 04.07.15 130 (ЮВ) 20000 м    3/3 1000 м 
[Cu hum]
+26 +14.6 49 +34  1020.6  -1.2  759  276           
15 04.07.15 100 (В) 20000 м    1/1 1000 м 
[Cu hum]
+25.7 +16.2 56 +36  1019.5  -1.1  759  276           
18 04.07.15 020 (С) 20000 м    3/3 600 м 
[Sc diur, vesp]
+24.7 +16.9 62 +36  1019.1  -0.4  758  277    +26.5       
21 04.07.15 030 (СВ) 20000 м    ясно 
+23.5 +9.2 40 +24  1018.9  -0.3  758  280           
00 05.07.15 030 (СВ) 20000 м    6/0 средняя 
[Ac As]
+21.8 +8 41 +22  1017.8  -1.1  757  281           
03 05.07.15 050 (СВ) 20000 м    8/3 1000 м средняя 
[Sc|Ac trans]
+22.2 +9.3 44 +22  1017.3  -0.5  757  280           
06 05.07.15 070 (В) 20000 м    9/0 средняя 
[Ac trans]
+23.8 +11.3 45 +27  1016.7  -0.6  756  278  +21.1         
09 05.07.15 090 (В) 20000 м    8/8 1300 м 
[Sc]
+25.4 +13.7 48 +32  1015.5  -1.1  756  276           
12 05.07.15 070 (В) 20000 м    9/0 средняя 
[Ac As]
+26.2 +13 44 +31  1014.3  -1.2  755  275           
15 05.07.15 180 (Ю) 20000 м    8/8 1000 м 
[Sc]
+26.8 +14.7 47 +35  1012.9  -1.3  754  274           
18 05.07.15 320 (СЗ) 20000 м    6/6 600 м 
[Cu med, cong]
+24.3 +17.7 67 +38  1012.7  -0.3  754  275    +27.4       
21 05.07.15 320 (СЗ) 10 км    6/6 600 м кучево-дожд. 
[Cb cap]
+21.8 +13.5 59 +28  1012.6  -0.2  753  278           
00 06.07.15 360 (С) 20000 м    8/8 600 м кучево-дожд. 
[Cb cap]
+22.2 +13.4 57 +28  1011.5  -1  753  278           
03 06.07.15 020 (С) 10 км    5/4 1000 м верхняя 
[Sc|Ci fib]
+21.4 +14 63 +28  1011.8  0.2  753  278           
06 06.07.15 070 (В) 10 км    4/4 600 м 
[Cu med, cong]
+24.3 +18.4 70 +39  1011.9  0.2  753  274  +21.3         
09 06.07.15 160 (Ю) 20000 м    4/3 600 м средняя 
[Cu med, cong|Ac trans]
+26.1 +20.9 73 +47  1011.8  753  272           
12 06.07.15 160 (Ю) 20000 м  гроза без осадков  8/4 600 м средняя 
[Cu med, cong|Ac As]
+26.2 +19.5 67 +44  1011.5  -0.3  753  272           
15 06.07.15 180 (Ю) 20000 м  {гроза}  4/0 средняя, верхняя 
[Ac As|Ci fib]
+25.8 +20.3 72 +45  1011.5  753  272           
18 06.07.15 250 (З) 10 км  {гроза}  3/0 средняя, верхняя 
[Ac trans|Ci fib]
+24.2 +19 73 +40  1012.2  0.6  753  274    +27       
Время (UTC), дата Ветер
(°,м/с) 
Видим.   Явления Облачность Т
(°С)
Тd
(°С)
f(%) Тe
(°С)
Pmin
(гПа)
dP
(гПа)
Po
(мм)
O2
(г/м3)
Тmin Tmax R s Состояние
почвы

Для получения пояснительной информации подведите курсор к названию столбца.

ПОГОДА в Мариуполе - архив

Всё, что Вы хотите узнать о погоде в Мариуполе - удобно и подробно!

Выберите нужную дату (начиная с 1 января 2013* года) и нажмите кнопку "Найти".
Будут отображены архивные сводки погоды по пункту Мариуполь, начиная с указанной даты.


Отображать данные в формате CSV (для использования в таблицах Excel)


Внимание! Наш архив погоды предназначен исключительно для личного некоммерческого использования в познавательных целях. Если Вам необходимы официальные справки о состоянии погоды (для производственных, юридических, коммерческих и т.п. целей), обращайтесь в органы Росгидромета.

*Примечание: данная дата относится к архиву по метеостанциям СССР (Россия, СНГ, Балтия).
Архив по метеостанциям Зарубежной Европы и Азии (кроме Китая) хранится 10 дней, по другим регионам земного шара (Китай, Африка, Америка, Австралия, Океания) - 1 день.

Мариуполь - район местоположения метеостанции


Название, широта, долгота, высота метеостанции:
Мариуполь (город) 47°ш. 37.5°д. 70 м над ур. моря [Украина]

Дополнительная информация

В oтличие oт бoльшинства пoгoдных сайтoв мы публикуем пoдрoбную метеoинфoрмацию в детальнoм прoфессиoнальнoм фoрмате.

Характеристики температуры и влажнoсти вoздуха измеряются на высoте 2 м в тени вдали oт зданий и деревьев.
Скoрoсть ветра измеряется на высoте 10 м (на урoвне рoста челoвека скoрoсть ветра ниже в 1.5-2 раза). Если метеoстанция нахoдится в гoрoде или в лесу, тo скoрoсть ветра занижена на 2-4 м/с пo сравнению с oткрытым местoм. Скoрoсть ветра над акватoриями крупных рек и oзёр, а также на вершинах хoлмoв на 2-5 м/с выше, чем в oбычных услoвиях.
Атмoсфернoе давление в разных тoчках местнoсти мoжет значительнo oтличаться oт давления на метеoстанции, в зависимoсти oт услoвий рельефа (при пoдъёме на 10 м давление пoнижается примернo на 1 мм рт.ст.).